Voltar ao catálogo

USA 425

AtivoMilitarVLEO
NORAD 61648·PAYLOAD·🇺🇸 United States

Lançado Oct 24, 2024 de Vandenberg Space Force Base

Loading…

Próximas Passagens (próximas 24 horas)

TLE

ObsoletoSource: Mike McCants

Época: Aug 10, 2026, 20:54 UTC

1 61648U 24192E   26222.87117986 0.00000000  00000-0  00000-0 0    07
2 61648  70.0170 129.6911 0003000 293.1917  66.8083 14.96713490    01

Acompanhe USA 425 em tempo real com AllMySat

Download on the App Store